Location: Newark
(43.0117°N, 7.5572°W)
Time: 20:28:40
(UTC+00:00)

X-37B - Pass Details

Date: 07 October 2020
Orbit: 382 x 392 km, 45.0° (Epoch: 15 October)

Event Time Altitude Azimuth Distance (km) Brightness Sun altitude
Rises 19:01:41 0° 261° (W) 2,265 6.3 -12.0°
Reaches altitude 10° 19:03:46 10° 263° (W) 1,410 4.9 -12.4°
Maximum altitude 19:06:56 71° 349° (N) 409 0.7 -13.0°
Enters shadow 19:08:40 24° 69° (ENE) 848 1.8 -13.3°
